Temp
-16 -16 -16 -16 -16 -16 -16 -16 -16 -16 -16 -15 -15 -15 -15 -15 -15 -15 -15 -15 -15 -14 -14 -14 -14 -14 -15 -15 -15 -15 -14 -14 -14 -14 -14 -14 -15 -15 -15 -15 -15 -15
-16 -16 -16 -16 -16 -16 -16 -16 -16 -16 -16 -15 -15 -15 -15 -15 -15 -15 -15 -15 -15 -15 -15 -15 -15 -15 -15 -15 -15 -15 -15 -15 -15 -15 -15 -15 -15 -15 -15 -15 -15 -15
-16 -17 -17 -17 -16 -16 -16 -16 -16 -16 -16 -15 -15 -15 -15 -15 -15 -15 -15 -15 -15 -15 -15 -15 -15 -15 -15 -15 -15 -15 -15 -15 -15 -15 -15 -15 -15 -15 -15 -15 -15 -16
-16 -16 -17 -17 -16 -16 -16 -16 -16 -16 -15 -15 -15 -15 -15 -15 -15 -15 -15 -15 -15 -15 -15 -15 -15 -15 -15 -15 -15 -15 -15 -15 -15 -15 -15 -16 -16 -16 -16 -16 -16 -16
-16 -16 -16 -17 -17 -17 -16 -16 -16 -16 -15 -15 -15 -15 -15 -15 -15 -15 -16 -16 -15 -15 -15 -15 -15 -16 -16 -16 -16 -16 -16 -16 -16 -16 -16 -16 -16 -16 -16 -16 -16 -16
-16 -16 -16 -16 -17 -17 -17 -16 -16 -16 -15 -16 -16 -16 -16 -15 -16 -16 -16 -16 -16 -16 -16 -16 -16 -16 -16 -16 -16 -16 -16 -16 -16 -16 -16 -16 -16 -16 -16 -16 -17 -17
-16 -16 -16 -16 -17 -17 -17 -16 -16 -16 -16 -16 -16 -16 -16 -16 -16 -16 -16 -16 -16 -16 -16 -16 -16 -16 -16 -16 -16 -16 -16 -16 -16 -16 -16 -16 -16 -16 -16 -16 -17 -17
-16 -16 -16 -17 -17 -17 -17 -16 -16 -16 -16 -16 -16 -16 -16 -16 -16 -16 -16 -16 -16 -16 -16 -16 -16 -16 -16 -16 -16 -16 -16 -16 -16 -16 -16 -16 -16 -16 -16 -16 -17 -17
-16 -16 -16 -16 -16 -16 -16 -16 -16 -16 -16 -16 -16 -16 -16 -16 -16 -16 -16 -16 -16 -16 -16 -16 -16 -16 -16 -16 -17 -17 -17 -16 -16 -16 -17 -17 -17 -17 -17 -17 -17 -17
-16 -16 -16 -16 -16 -16 -16 -16 -16 -16 -16 -16 -16 -16 -16 -16 -16 -16 -16 -16 -16 -16 -16 -16 -16 -16 -16 -16 -17 -17 -17 -17 -17 -17 -17 -17 -17 -17 -17 -17 -17 -17
-16 -16 -16 -16 -17 -17 -16 -16 -16 -16 -16 -17 -17 -17 -17 -16 -16 -16 -16 -16 -16 -16 -16 -16 -16 -16 -16 -17 -17 -17 -17 -17 -17 -17 -17 -17 -17 -17 -17 -17 -17 -17
-16 -16 -16 -17 -17 -17 -16 -16 -16 -16 -16 -17 -17 -17 -17 -17 -16 -16 -16 -16 -16 -16 -16 -16 -16 -16 -17 -17 -17 -17 -17 -17 -17 -17 -17 -17 -17 -17 -17 -17 -17 -17
-16 -16 -16 -16 -16 -16 -16 -17 -17 -17 -17 -17 -17 -17 -17 -17 -16 -16 -16 -16 -16 -17 -17 -17 -17 -17 -17 -17 -17 -17 -17 -17 -17 -17 -17 -17 -17 -17 -17 -17 -17 -17
-16 -17 -17 -17 -17 -17 -17 -17 -17 -17 -17 -17 -17 -17 -17 -17 -16 -16 -16 -17 -17 -17 -17 -17 -17 -17 -17 -17 -17 -17 -17 -17 -17 -17 -17 -17 -17 -17 -17 -17 -17 -17
-17 -17 -17 -17 -17 -17 -17 -17 -17 -17 -17 -17 -17 -17 -17 -17 -17 -17 -17 -17 -17 -17 -17 -17 -17 -17 -17 -17 -17 -17 -17 -17 -17 -17 -17 -17 -17 -17 -17 -17 -17 -17
-17 -17 -17 -17 -17 -17 -17 -17 -17 -17 -17 -18 -18 -18 -17 -17 -17 -17 -17 -17 -17 -17 -17 -17 -17 -18 -18 -18 -17 -17 -17 -17 -17 -17 -17 -17 -17 -17 -17 -17 -17 -17
-17 -17 -17 -17 -17 -17 -17 -17 -17 -17 -18 -18 -18 -18 -17 -17 -17 -17 -17 -17 -17 -17 -17 -17 -18 -18 -18 -18 -18 -17 -17 -17 -17 -17 -17 -17 -17 -17 -17 -17 -17 -17
-18 -18 -18 -18 -18 -17 -17 -17 -17 -17 -18 -18 -18 -18 -18 -18 -17 -17 -17 -17 -17 -17 -17 -18 -18 -18 -18 -18 -18 -18 -17 -17 -17 -17 -17 -17 -17 -17 -17 -17 -17 -17
-18 -18 -18 -18 -18 -18 -17 -18 -18 -18 -18 -18 -18 -18 -18 -18 -18 -18 -17 -18 -18 -17 -18 -18 -19 -19 -18 -18 -18 -18 -18 -17 -17 -17 -17 -17 -17 -17 -17 -17 -17 -17
-18 -18 -18 -18 -18 -18 -18 -18 -18 -18 -18 -18 -18 -18 -18 -18 -18 -18 -18 -18 -18 -18 -18 -18 -19 -19 -18 -18 -18 -18 -18 -18 -18 -18 -18 -18 -18 -18 -18 -18 -18 -18
-19 -18 -18 -18 -18 -18 -18 -18 -18 -18 -18 -18 -18 -18 -18 -18 -18 -18 -18 -18 -18 -18 -18 -19 -19 -19 -19 -19 -19 -19 -19 -18 -18 -18 -18 -18 -18 -18 -18 -18 -18 -18
-19 -19 -19 -19 -18 -18 -18 -18 -18 -18 -18 -18 -18 -18 -18 -18 -19 -19 -19 -19 -18 -18 -19 -19 -19 -19 -19 -19 -19 -19 -19 -19 -19 -19 -19 -19 -19 -19 -19 -19 -19 -19
-20 -20 -20 -19 -19 -19 -19 -19 -19 -19 -19 -19 -19 -19 -19 -19 -19 -19 -19 -19 -19 -19 -19 -19 -19 -19 -19 -19 -19 -19 -19 -19 -19 -19 -19 -19 -19 -19 -19 -19 -19 -19
-20 -20 -20 -20 -20 -19 -19 -19 -19 -19 -19 -19 -19 -19 -19 -19 -19 -19 -19 -19 -19 -19 -19 -19 -19 -19 -20 -20 -20 -20 -20 -20 -20 -20 -20 -20 -19 -19 -19 -19 -20 -20
-21 -21 -21 -20 -20 -20 -20 -20 -20 -20 -20 -20 -20 -20 -20 -20 -20 -20 -20 -20 -20 -20 -20 -20 -20 -20 -20 -20 -20 -20 -20 -20 -20 -20 -20 -20 -20 -20 -20 -20 -20 -20
-21 -21 -21 -21 -21 -20 -20 -20 -20 -20 -20 -20 -20 -21 -20 -20 -20 -20 -20 -20 -20 -20 -20 -20 -20 -20 -20 -20 -20 -20 -20 -20 -20 -20 -20 -20 -20 -20 -20 -20 -20 -20
Height
5757 5758 5758 5759 5760 5761 5761 5761 5761 5762 5763 5764 5764 5765 5765 5766 5766 5766 5766 5766 5766 5766 5766 5766 5767 5767 5767 5768 5768 5768 5768 5768 5768 5769 5769 5769 5769 5769 5769 5769 5769 5769
5754 5755 5756 5757 5758 5758 5759 5759 5759 5760 5761 5762 5762 5763 5763 5763 5764 5764 5764 5764 5764 5764 5764 5764 5765 5765 5765 5765 5765 5765 5766 5766 5766 5766 5766 5767 5767 5767 5767 5767 5767 5768
5750 5752 5754 5755 5756 5756 5756 5757 5757 5757 5758 5759 5760 5761 5761 5761 5762 5762 5762 5762 5762 5762 5762 5762 5763 5763 5763 5763 5763 5763 5763 5763 5764 5764 5764 5764 5765 5765 5765 5765 5766 5766
5747 5749 5751 5753 5753 5754 5754 5754 5755 5755 5756 5757 5758 5758 5758 5759 5759 5760 5760 5760 5760 5760 5760 5761 5761 5761 5761 5761 5761 5761 5762 5762 5762 5762 5762 5762 5762 5763 5763 5763 5763 5764
5744 5746 5748 5750 5751 5752 5752 5752 5753 5753 5754 5755 5755 5755 5756 5756 5757 5758 5758 5758 5758 5758 5758 5758 5759 5759 5759 5759 5759 5759 5760 5760 5760 5760 5760 5760 5760 5760 5761 5761 5761 5761
5741 5743 5745 5747 5749 5749 5749 5749 5750 5751 5751 5752 5753 5753 5754 5754 5755 5756 5756 5756 5756 5756 5756 5756 5756 5756 5756 5756 5756 5757 5757 5758 5758 5758 5758 5758 5758 5758 5758 5759 5759 5759
5739 5740 5742 5744 5745 5746 5746 5747 5748 5748 5749 5750 5750 5751 5751 5752 5753 5753 5753 5754 5754 5754 5754 5754 5754 5754 5754 5754 5754 5754 5754 5755 5755 5756 5756 5756 5756 5756 5756 5756 5756 5757
5736 5738 5739 5741 5742 5743 5744 5744 5745 5746 5747 5747 5748 5748 5749 5750 5750 5751 5751 5752 5752 5752 5752 5752 5752 5752 5751 5751 5751 5752 5752 5752 5753 5753 5753 5753 5753 5754 5754 5754 5754 5754
5733 5735 5737 5739 5740 5740 5740 5741 5742 5743 5744 5745 5745 5745 5746 5747 5748 5748 5749 5749 5749 5749 5749 5749 5749 5749 5749 5749 5749 5749 5750 5750 5750 5750 5750 5750 5751 5751 5751 5751 5752 5752
5730 5732 5734 5736 5736 5737 5737 5738 5739 5740 5741 5742 5742 5743 5743 5744 5745 5745 5745 5746 5746 5747 5747 5747 5747 5747 5746 5746 5746 5747 5747 5747 5747 5747 5747 5748 5748 5748 5748 5749 5749 5749
5729 5730 5732 5733 5733 5734 5735 5736 5737 5738 5738 5739 5740 5740 5741 5741 5742 5742 5742 5743 5743 5744 5744 5744 5744 5744 5743 5743 5744 5744 5744 5745 5745 5745 5745 5745 5745 5745 5745 5746 5746 5747
5728 5729 5729 5730 5731 5731 5733 5734 5734 5735 5736 5737 5737 5738 5738 5739 5739 5739 5740 5740 5740 5741 5741 5741 5741 5741 5740 5741 5741 5741 5742 5742 5743 5743 5743 5743 5743 5743 5743 5743 5743 5744
5725 5726 5725 5727 5728 5729 5730 5731 5732 5732 5733 5734 5735 5735 5736 5736 5737 5737 5737 5737 5738 5738 5738 5738 5738 5738 5738 5738 5739 5739 5740 5740 5741 5742 5742 5742 5741 5740 5740 5740 5741 5741
5723 5723 5723 5723 5725 5727 5728 5729 5729 5730 5731 5731 5732 5733 5733 5734 5735 5735 5735 5735 5735 5735 5736 5736 5737 5737 5736 5736 5737 5738 5739 5739 5740 5740 5740 5740 5739 5737 5737 5737 5738 5738
5722 5722 5722 5722 5723 5724 5725 5726 5727 5728 5728 5729 5730 5730 5732 5733 5733 5734 5734 5734 5734 5735 5735 5735 5735 5734 5732 5732 5734 5735 5736 5737 5737 5736 5736 5736 5736 5735 5734 5734 5735 5735
5720 5721 5720 5720 5722 5723 5723 5724 5724 5725 5725 5725 5726 5727 5729 5730 5730 5731 5732 5732 5732 5732 5733 5732 5731 5729 5728 5729 5731 5732 5732 5733 5733 5732 5732 5733 5733 5733 5732 5732 5731 5732
5716 5717 5718 5719 5720 5721 5721 5722 5722 5721 5721 5721 5723 5724 5725 5727 5727 5728 5729 5729 5729 5729 5728 5726 5724 5724 5724 5726 5727 5728 5729 5729 5728 5728 5729 5729 5729 5730 5730 5729 5728 5729
5713 5714 5716 5717 5717 5718 5718 5719 5719 5717 5716 5717 5719 5720 5722 5723 5725 5725 5726 5726 5726 5726 5723 5719 5718 5720 5721 5722 5723 5724 5725 5725 5725 5725 5726 5726 5725 5725 5726 5725 5725 5725
5711 5712 5713 5714 5714 5714 5714 5715 5715 5714 5714 5714 5715 5716 5718 5719 5721 5722 5723 5722 5722 5721 5718 5715 5715 5717 5718 5718 5719 5720 5720 5721 5721 5721 5722 5722 5721 5721 5721 5721 5721 5720
5707 5708 5709 5710 5710 5710 5710 5710 5710 5710 5710 5711 5711 5712 5713 5714 5716 5717 5717 5717 5717 5716 5714 5711 5712 5713 5714 5715 5715 5716 5716 5717 5717 5717 5717 5717 5716 5716 5716 5716 5716 5716
5702 5703 5703 5704 5705 5706 5706 5705 5705 5705 5705 5705 5706 5707 5708 5709 5710 5711 5711 5712 5712 5712 5709 5708 5709 5710 5710 5711 5711 5711 5712 5712 5712 5712 5712 5712 5711 5712 5711 5711 5711 5711
5696 5697 5697 5698 5700 5700 5701 5700 5700 5700 5700 5700 5701 5702 5703 5704 5705 5706 5706 5706 5707 5707 5705 5704 5704 5705 5705 5706 5706 5706 5707 5707 5707 5707 5707 5706 5706 5707 5707 5707 5707 5707
5690 5691 5692 5693 5694 5695 5695 5695 5694 5695 5695 5695 5696 5697 5697 5698 5699 5700 5701 5701 5701 5702 5701 5700 5700 5700 5701 5701 5701 5701 5701 5702 5701 5701 5701 5700 5701 5702 5703 5702 5702 5702
5684 5685 5685 5687 5688 5689 5689 5689 5689 5690 5690 5690 5691 5691 5692 5693 5693 5694 5695 5695 5696 5696 5696 5696 5696 5696 5696 5696 5696 5696 5696 5696 5695 5695 5694 5694 5695 5697 5698 5697 5697 5697
5678 5679 5680 5680 5681 5682 5683 5684 5684 5684 5684 5685 5686 5686 5686 5687 5687 5688 5689 5689 5690 5690 5690 5690 5690 5690 5691 5690 5690 5690 5690 5690 5689 5688 5688 5688 5688 5690 5692 5692 5692 5692
5672 5673 5674 5675 5675 5676 5678 5678 5678 5679 5679 5680 5681 5681 5681 5681 5682 5683 5683 5684 5684 5684 5684 5685 5685 5685 5685 5684 5684 5684 5684 5684 5683 5682 5682 5682 5682 5683 5686 5687 5687 5687
Wind_Speed
29 27 24 23 23 22 22 20 18 17 16 16 17 16 15 14 14 15 15 16 17 18 19 19 19 19 19 20 20 21 21 21 21 21 20 19 18 17 17 16 15 15
28 29 27 25 24 23 22 21 19 18 17 17 18 18 17 17 17 17 17 17 18 18 19 19 19 19 20 20 21 21 22 22 22 21 20 20 19 18 17 17 16 15
29 29 28 26 25 24 23 22 20 19 18 19 20 20 20 20 19 18 18 18 19 19 19 19 19 20 20 21 21 22 22 22 22 21 20 20 19 19 18 17 16 15
29 29 29 27 25 25 24 23 22 21 21 21 22 22 23 23 22 20 20 20 20 20 20 20 20 20 20 20 21 21 22 22 22 21 20 19 19 18 17 17 17 16
29 30 29 27 25 25 26 26 24 23 23 24 25 25 25 25 24 23 22 21 20 20 21 21 21 20 20 20 21 21 21 21 21 20 20 19 18 18 17 17 16 16
30 31 31 27 25 26 27 27 27 26 26 26 26 26 25 25 25 24 24 23 21 21 21 21 21 21 20 20 21 21 21 21 20 20 19 19 19 18 18 17 17 16
33 32 32 29 26 27 28 29 29 28 27 26 25 24 24 25 25 26 25 24 23 22 22 22 21 21 21 20 21 20 20 19 19 19 19 19 19 19 19 18 18 17
36 34 34 31 28 27 28 29 29 28 26 25 24 25 25 25 25 25 25 24 23 22 21 21 21 21 21 20 20 19 19 18 18 18 19 19 19 19 19 18 18 18
33 34 35 32 30 29 30 30 30 28 27 26 26 26 26 25 24 24 24 24 23 22 22 21 21 21 20 20 20 19 18 17 16 16 17 17 18 17 17 18 17 17
30 34 35 34 33 32 31 31 30 29 28 27 27 27 26 25 24 24 24 24 24 24 23 22 22 21 21 21 21 20 18 17 17 17 17 17 18 18 18 19 18 18
29 33 33 33 32 31 30 30 30 29 29 28 27 28 27 26 26 26 26 27 27 26 25 25 24 23 23 23 23 21 19 19 19 19 19 19 20 20 20 21 21 21
25 28 29 29 28 28 28 29 30 30 30 29 29 29 29 28 28 28 29 29 30 29 29 28 27 26 25 25 25 24 23 22 21 21 21 22 22 22 22 22 22 22
25 27 29 29 29 28 29 29 30 30 31 31 31 31 30 30 30 31 31 32 31 30 29 29 28 27 26 25 26 26 25 24 24 24 25 25 25 25 25 25 24 23
22 24 26 27 27 28 28 29 30 30 31 31 32 32 31 31 31 32 33 32 31 29 29 29 28 26 25 26 26 26 25 25 25 25 25 26 26 27 27 27 27 26
18 20 23 25 26 26 26 27 29 30 31 31 31 31 30 30 30 31 32 32 32 31 31 31 29 27 27 27 26 26 26 25 25 26 25 24 25 26 27 28 28 29
21 23 24 24 24 24 25 27 28 29 30 30 30 30 29 29 31 30 27 27 31 33 33 33 32 31 30 29 27 27 26 24 22 24 25 25 26 27 27 27 28 28
26 25 23 22 22 24 26 28 29 30 31 32 31 31 31 30 32 33 30 26 27 30 33 34 34 33 32 31 29 29 28 27 25 24 26 28 28 28 29 28 28 29
28 27 26 26 26 27 29 31 32 33 34 34 33 33 33 33 34 36 35 33 30 29 32 34 33 32 32 32 32 31 31 31 30 29 29 30 30 30 32 33 33 34
31 31 31 31 31 32 33 33 34 34 34 34 33 34 35 36 36 36 37 38 37 35 35 36 34 33 33 34 35 34 34 34 34 33 33 34 34 35 37 37 37 38
34 34 34 35 35 36 36 36 36 36 35 35 36 36 36 37 38 38 38 39 39 38 38 38 37 36 36 37 37 37 37 37 37 37 38 39 39 40 40 40 41 41
37 37 38 38 38 38 39 40 40 40 39 39 38 39 39 39 39 39 40 40 40 41 41 40 39 38 38 39 40 39 39 39 39 40 41 42 43 43 43 44 44 43
39 40 41 41 41 42 42 43 44 44 43 43 43 43 43 42 42 42 43 44 44 45 45 45 43 41 40 40 41 42 42 43 44 44 45 45 46 46 46 46 46 46
39 40 41 42 43 43 44 45 46 46 46 47 47 47 46 46 45 45 45 46 46 47 47 47 46 45 44 44 45 46 48 49 48 46 46 47 47 47 48 49 49 48
38 39 40 41 42 43 44 45 46 47 48 49 48 49 49 49 49 49 49 48 48 48 49 49 49 49 49 49 50 50 50 50 49 47 46 47 47 46 46 48 49 48
33 34 35 37 39 40 41 43 44 45 46 45 44 44 44 45 46 47 47 47 47 48 48 49 49 50 50 51 51 51 50 50 49 49 49 48 48 47 47 48 49 49
35 35 35 35 36 37 38 40 41 41 40 39 38 38 38 40 41 42 42 43 44 45 46 46 48 49 50 50 50 50 50 50 50 50 50 50 50 49 48 47 47 48
Wind_Direction
262 255 250 250 250 252 252 254 254 251 246 242 243 249 255 258 258 259 264 271 275 276 277 280 283 286 287 287 285 283 282 280 279 278 276 273 270 268 267 268 270 272
258 250 248 250 252 253 253 250 247 245 244 245 248 253 256 256 256 258 265 272 273 273 276 279 283 286 288 288 287 285 283 282 281 279 277 276 273 269 266 264 265 267
253 247 245 249 252 251 250 247 245 244 244 246 249 252 254 256 257 259 265 269 269 269 270 273 277 280 283 285 285 285 284 283 281 280 278 276 274 271 268 265 263 263
251 244 242 247 250 248 247 246 245 246 248 248 250 252 254 256 258 260 264 267 266 265 266 269 272 275 279 283 285 285 285 283 281 279 277 275 273 271 270 269 268 266
250 244 239 243 247 244 244 245 246 248 249 251 253 254 255 256 258 262 266 267 265 265 267 269 271 274 278 283 284 285 284 282 280 278 276 274 273 271 271 271 272 271
250 244 236 238 242 239 241 245 246 246 249 251 254 255 254 255 258 264 267 268 266 266 268 269 272 275 278 282 284 284 284 282 280 277 275 273 272 271 270 270 270 270
253 245 233 234 238 237 240 244 245 246 247 249 251 252 253 256 260 264 267 268 267 266 266 267 270 273 275 277 279 280 281 281 280 278 274 270 268 267 266 266 266 265
254 242 230 232 236 236 237 240 242 243 245 247 250 252 255 259 262 264 265 266 265 263 262 264 266 267 269 270 271 271 273 274 275 275 274 270 267 265 263 262 261 260
246 233 228 231 235 235 236 236 237 239 243 247 251 253 257 259 261 262 263 263 262 261 262 262 261 262 263 263 261 261 264 266 268 269 269 268 266 265 265 265 264 262
229 223 227 232 234 233 233 234 236 239 243 248 250 253 255 257 259 260 261 261 261 261 261 260 259 259 259 256 253 253 258 263 265 265 264 263 264 265 267 268 267 265
229 227 231 234 232 230 231 234 238 241 244 246 247 249 252 254 256 257 259 260 260 259 257 256 256 257 256 253 248 247 252 258 262 263 264 265 266 268 270 271 269 267
237 236 235 232 230 230 233 236 238 239 241 243 244 246 249 252 254 255 257 257 258 258 255 254 255 256 255 252 246 245 250 255 258 261 263 266 269 270 271 272 271 269
243 241 239 235 235 238 239 239 238 238 239 241 243 245 248 251 253 254 255 256 258 258 255 254 256 258 258 254 249 248 251 255 258 261 265 269 271 271 271 271 270 269
245 240 240 240 242 244 242 240 240 240 241 242 244 247 250 252 254 255 257 257 256 256 257 259 260 261 260 258 255 254 256 259 261 264 267 269 270 270 270 270 269 269
237 240 248 250 250 249 246 245 243 243 244 245 247 250 253 255 257 260 263 264 261 260 263 263 260 259 257 254 253 255 256 260 264 265 266 266 266 268 270 271 270 269
254 260 262 260 257 253 251 250 249 248 248 249 249 251 253 254 256 257 258 262 263 262 262 261 258 256 254 251 251 253 252 254 259 261 262 263 263 265 269 272 271 270
267 267 264 262 260 259 259 257 254 252 252 251 251 253 253 253 255 255 252 253 260 260 258 258 256 253 253 253 252 251 249 248 252 256 256 258 261 263 267 269 270 270
262 262 262 261 259 258 259 257 254 253 253 254 254 255 256 255 256 257 254 253 257 257 257 258 256 254 255 255 253 252 249 248 253 258 258 259 263 266 269 270 271 272
257 258 259 259 256 255 257 256 255 255 257 259 260 259 258 257 256 255 254 253 254 257 258 259 259 257 257 257 257 256 255 255 259 263 263 264 266 268 270 271 272 273
254 255 255 255 255 257 259 260 260 261 260 260 261 261 260 259 256 254 251 250 252 256 259 260 260 259 259 259 260 260 261 263 266 268 269 269 269 270 270 271 271 272
254 254 254 254 255 256 258 260 260 261 260 258 259 260 259 257 255 252 251 251 251 254 258 260 260 261 262 261 261 262 265 268 271 273 273 273 272 272 271 271 271 272
253 253 253 254 254 255 256 258 259 259 259 258 257 257 256 256 255 253 253 254 253 254 258 261 262 262 262 261 261 263 266 270 273 274 272 272 271 271 271 271 271 271
254 254 254 254 255 256 257 258 258 259 259 259 257 256 255 255 255 254 254 255 256 257 260 262 263 262 263 263 264 267 270 273 274 272 270 269 269 270 270 271 271 271
255 256 256 255 255 256 256 256 256 257 257 257 256 256 256 256 257 259 260 261 262 263 264 265 265 265 266 267 269 270 271 272 272 271 269 269 269 269 269 269 269 269
255 255 256 257 256 255 255 255 255 254 253 254 255 257 258 260 261 262 264 266 267 268 268 269 268 268 268 268 268 268 269 269 269 269 269 268 268 268 267 267 268 269
258 258 258 258 257 254 254 254 253 250 250 251 253 257 260 262 263 265 266 267 268 269 269 270 270 269 268 268 267 268 268 269 268 268 269 269 270 269 268 268 269 270